Find Starlink 34931

NORAD ID: 65398 Int'l Des: 2025-191 Owner: SPXS Country: US Constellation: starlink operational
LEOCIRCULARRETROGRADESSO

現在のビュー

3D地球を読み込み中...

About Starlink 34931

Starlink 34931 (NORAD 65398) is a starlink constellation satellite (v2 mini) launched Aug 30, 2025 by SPXS of US. It operates in LEO, CIRCULAR, RETROGRADE, SSO orbit with a mass of 575.00 kg.

次回通過

Passes for default location (London). Set your location on the main map for personalized predictions.

高度履歴

Loading altitude history...

軌道要素

1 65398U 25191V 26238.12524897 .00004356 00000-0 26770-3 0 9991
2 65398 97.2837 104.7152 0001045 65.7697 294.3643 15.10554023 55769
Epoch: Aug 26, 2026 • Age: 6 hours

現在のステータス

高度 551.6 km
遠地点 / 近地点 N/A
速度 7.58 km/s
衛星直下点 -43.57°S, 0.31°W
打ち上げ日 Aug 30, 2025
運用期間 0.9 years
タイプ internet

技術仕様

分類 Payload
質量 575.00 kg
乾燥質量 530.00 kg
総質量 575.00 kg
長さ 0.30 m
直径 4.10 m
スパン 29.00 m
形状 Box + pan
製造者 SPXS
バスタイプ Starlink V2MO
フェーズステータス In Orbit
所有者/国 SPXS/US

Most Searched